User: anonymous   Login
Location: Burgerwiesen
(48.6500°N, 15.6167°E)
Time: 13:16:37
(UTC+00:00)
Language:

Cosmos 2082 Rocket - Orbit

View from above orbital plane
View from above orbital plane
View from above satellite
View from above satellite

Ground track
Ground track

The orbit data is extracted from the following two-line orbital elements,

1 20625U 90046B   20191.77882100 -.00000209 +00000-0 -83602-4 0  9996
2 20625 070.9994 321.3382 0015526 215.3113 144.6982 14.14652930555770
Epoch (UTC): 09 July 2020 18:41:30
Eccentricity: 0.0015526
inclination: 70.9994°
perigee height: 832 km
apogee height: 855 km
right ascension of ascending node: 321.3382°
argument of perigee: 215.3113°
revolutions per day: 14.14652930
mean anomaly at epoch: 144.6982°
orbit number at epoch: 55577

The dashed part of the orbit path shows where the satellite is in the earth's shadow,  

DLR